[[{"header":{"parameterUnit":"m.s-1","parameterCategory":1,"la1":30.2991,"la2":30.254,"lo1":-89.0895,"lo2":-89.0444,"dy":0.0017,"dx":0.0017,"nx":28,"ny":28,"refTime":"2023-10-13T09:00:00:Z","depth":0,"parameterNumber":2,"parameterNumberName":"U-component_of_WINDS"},"data":[0,0,0,0,0,0,0,0,0,0,0,0,0,0,0,0,0,0,0,0,0,0,0,0,0,0,0,0,0,0,0,0,0,0,0,0,0,0,0,0,0,0,0,0,0,0,0,0,0,0,0,0,0,0,0,0,0,0,2.5564,2.5565,0,2.5576,2.5576,2.5576,2.5546,2.5546,2.5545,2.5544,2.5555,2.5556,2.5557,0,0,0,0,0,0,0,0,0,0,0,0,0,2.5516,2.5517,2.5564,2.5565,2.5565,2.5576,2.5576,2.5576,2.5547,2.5546,2.5544,2.5543,2.5554,2.5556,2.5557,0,0,0,0,0,0,0,0,0,0,0,0,0,2.5534,2.5518,2.5564,2.5551,2.555,2.5576,2.5576,2.5576,2.5547,2.5545,2.5544,2.5543,2.5554,2.5556,2.5557,2.5596,0,0,2.5563,2.5564,0,0,0,0,0,0,0,0,2.5533,2.5535,2.5553,2.5552,2.5551,2.5558,2.5563,2.5583,2.5547,2.5548,2.5544,2.5542,2.5557,2.5559,2.5564,2.5597,2.5597,2.5563,2.5564,2.5565,2.5565,0,0,0,0,0,0,0,2.5531,2.5535,2.5569,2.5553,2.5552,2.5545,2.5546,2.5567,2.556,2.5548,2.5546,2.5548,2.5556,2.5562,2.5564,2.5598,2.5563,2.5564,2.5566,2.5566,2.5664,2.5666,0,0,0,0,0,0,2.5532,2.5534,2.5569,2.5569,2.5538,2.5547,2.5548,2.5557,2.556,2.5559,2.5549,2.5546,2.556,2.5562,2.5564,2.561,2.5565,2.5566,2.5567,2.5663,2.5665,2.5666,0,0,0,0,0,0,2.5531,2.5535,2.5568,2.5551,2.5555,2.5549,2.556,2.5558,2.5564,2.5561,2.5559,2.5556,2.5559,2.5562,2.5589,2.561,2.5567,2.5569,2.5661,2.5663,2.5665,2.5702,0,0,0,0,0,0,2.553,2.5535,2.555,2.5552,2.5556,2.5593,2.5562,2.556,2.5567,2.5564,2.5567,2.5566,2.5558,2.5586,2.5591,2.5612,2.557,2.5659,2.5662,2.5665,2.5699,2.5705,2.5711,0,0,0,0,0,2.5528,2.5559,2.5551,2.5555,2.5574,2.5594,2.5596,2.5586,2.5569,2.5584,2.5582,2.5566,2.5607,2.5589,2.5594,2.5616,2.5657,2.5661,2.5664,2.5696,2.5704,2.5711,0,0,0,0,0,0,2.5559,2.5559,2.5549,2.5582,2.5588,2.5589,2.5607,2.5595,2.5606,2.5602,2.5589,2.559,2.562,2.5621,2.5601,2.5654,2.5629,2.5634,2.5652,2.566,2.5665,2.5664,2.5572,0,0,0,0,0,2.557,2.5586,2.5585,2.5614,2.5618,2.5612,2.562,2.5613,2.5618,2.5621,2.562,2.5627,2.5641,2.565,2.5663,2.57,2.57,2.5717,2.5723,2.5728,2.5731,2.5751,2.5759,2.5678,2.5678,2.5678,0,0,2.5591,2.5594,2.5605,2.562,2.5624,2.5642,2.5614,2.5633,2.5646,2.5623,2.5649,2.565,2.5656,2.5688,2.5702,2.5689,2.5754,2.5732,2.5736,2.5737,2.5755,2.5763,2.577,2.568,2.568,2.5679,0,0,2.564,2.5644,2.5668,2.5673,2.568,2.5676,2.5682,2.5685,2.5685,2.571,2.5694,2.5709,2.5734,2.5739,2.5745,2.5798,2.5784,2.5803,2.5834,2.5853,2.5859,2.5865,2.5883,2.589,2.5807,2.5807,2.5807,0,2.5666,2.5692,2.5682,2.5703,2.571,2.5692,2.5717,2.5722,2.5733,2.5738,2.5725,2.5756,2.5759,2.5792,2.5805,2.5811,2.5817,2.5802,2.5859,2.5865,2.587,2.5887,2.5894,2.5809,2.5809,2.5809,2.5809,0,2.5723,2.5742,2.5761,2.5772,2.5782,2.5805,2.5799,2.581,2.5803,2.58,2.5828,2.5831,2.5844,2.5852,2.5844,2.5884,2.5876,2.5861,2.5836,2.588,2.5896,2.5903,2.5812,2.5812,2.5811,2.581,0,0,2.5789,2.5797,2.5804,2.5809,2.5816,2.583,2.5853,2.5867,2.5877,2.5885,2.5904,2.5927,2.5913,2.592,2.5913,2.593,2.5972,2.5913,2.5912,2.5923,2.6016,2.6027,2.6035,2.5963,2.5964,2.5965,2.6016,0,2.5837,2.5875,2.5868,2.5906,2.5923,2.5907,2.5927,2.5933,2.5933,2.5947,2.5946,2.5962,2.5943,2.5947,2.5964,2.5963,2.599,2.596,2.598,2.5981,2.5977,2.6043,2.6054,2.6101,2.6022,2.6023,2.6024,0,2.5897,2.5908,2.5948,2.5954,2.596,2.5978,2.5991,2.6005,2.6013,2.6011,2.602,2.601,2.6033,2.6009,2.604,2.602,2.6028,2.6029,2.6031,2.6031,2.6004,2.6045,2.6116,2.6123,2.6034,2.6033,2.6032,0,2.594,2.5966,2.5993,2.5998,2.6006,2.6019,2.6022,2.6029,2.6038,2.605,2.6056,2.607,2.6077,2.6088,2.6083,2.6066,2.6115,2.609,2.6114,2.6114,2.6124,2.6123,2.6196,2.6131,2.6131,2.6131,2.6131,0,2.5993,2.6018,2.6013,2.6029,2.6057,2.6049,2.6077,2.6079,2.6085,2.6102,2.6089,2.6105,2.6097,2.6113,2.6109,2.6135,2.6139,2.6138,2.6136,2.6138,2.6138,2.6142,2.6139,2.6133,2.6132,2.6132,2.6132,0,2.6045,2.6043,2.6071,2.6077,2.6079,2.6099,2.6103,2.6119,2.6119,2.614,2.6145,2.6143,2.6161,2.6157,2.6177,2.6174,2.6207,2.6202,2.6205,2.6203,2.6226,2.6224,2.6304,2.6314,2.6243,2.6244,2.6245,0,2.6078,2.6097,2.6105,2.6116,2.6121,2.6138,2.6148,2.6142,2.6153,2.6164,2.6179,2.6196,2.6209,2.6238,2.6239,2.6254,2.6248,2.6275,2.625,2.6252,2.6248,2.6246,2.6248,2.628,2.6281,2.6281,2.6282,0,2.6137,2.6136,2.6151,2.6166,2.6178,2.619,2.62,2.6209,2.6204,2.6217,2.6236,2.6246,2.6267,2.6284,2.6298,2.6302,2.6291,2.629,2.6296,2.6298,2.6298,2.6298,2.6217,2.6288,2.6287,2.6287,2.6286,2.6286,2.618,2.6196,2.6205,2.6222,2.623,2.624,2.6255,2.6257,2.6273,2.6289,2.6286,2.6307,2.6315,2.6333,2.6339,2.6356,2.6345,2.6354,2.6356,2.6358,2.6361,2.6297,2.6358,2.6358,2.6358,2.6358,2.6358,0,2.6238,2.6243,2.626,2.6275,2.6289,2.6279,2.629,2.6302,2.6321,2.633,2.6344,2.6366,2.6383,2.6386,2.6402,2.6415,2.641,2.6419,2.6417,2.6418,2.6369,2.6362,2.6423,2.6423,2.6423,2.6423,2.6423,2.6423,2.6269,2.6296,2.6297,2.6328,2.6333,2.6354,2.6361,2.6371,2.6378,2.6403,2.6417,2.642,2.6427,2.6444,2.6459,2.6459,2.6465,2.6476,2.6475,2.6428,2.6422,2.6416,2.6409,2.6478,2.6478,2.6522,2.6522,2.6523]},{"header":{"parameterUnit":"m.s-1","parameterCategory":1,"la1":30.2991,"la2":30.254,"lo1":-89.0895,"lo2":-89.0444,"dy":0.0017,"dx":0.0017,"nx":28,"ny":28,"refTime":"2023-10-13T09:00:00:Z","depth":0,"parameterNumber":3,"parameterNumberName":"V-component_of_WINDS"},"data":[0,0,0,0,0,0,0,0,0,0,0,0,0,0,0,0,0,0,0,0,0,0,0,0,0,0,0,0,0,0,0,0,0,0,0,0,0,0,0,0,0,0,0,0,0,0,0,0,0,0,0,0,0,0,0,0,0,0,-6.9896,-6.9899,0,-7.0106,-7.0108,-7.0111,-7.0042,-7.0038,-7.0033,-7.0029,-7.0238,-7.0248,-7.0257,0,0,0,0,0,0,0,0,0,0,0,0,0,-6.9433,-6.9442,-6.9896,-6.9899,-6.9902,-7.0106,-7.0108,-7.0111,-7.0043,-7.0038,-7.0032,-7.0027,-7.0235,-7.0247,-7.0258,0,0,0,0,0,0,0,0,0,0,0,0,0,-6.9638,-6.9445,-6.9896,-6.9892,-6.9894,-7.0105,-7.0109,-7.0112,-7.0044,-7.0038,-7.0031,-7.0025,-7.0231,-7.0245,-7.026,-7.0485,0,0,-7.0305,-7.0311,0,0,0,0,0,0,0,0,-6.9626,-6.9655,-6.989,-6.9893,-6.9895,-7.0041,-7.0022,-7.0237,-7.0046,-6.9987,-7.0029,-7.0021,-7.0178,-7.0196,-7.025,-7.0495,-7.0504,-7.0306,-7.0315,-7.0321,-7.0325,0,0,0,0,0,0,0,-6.9612,-6.9645,-6.9979,-6.9894,-6.9897,-6.9879,-6.9901,-7.0062,-7.0117,-6.9992,-6.9987,-7.0013,-7.0178,-7.0236,-7.0255,-7.0507,-7.0305,-7.0318,-7.0327,-7.0333,-7.0949,-7.0956,0,0,0,0,0,0,-6.9597,-6.9634,-6.9972,-6.9985,-6.9742,-6.9893,-6.9917,-7.0001,-7.0116,-7.0127,-7.0019,-7.0009,-7.0215,-7.0238,-7.0262,-7.0535,-7.0321,-7.0335,-7.0343,-7.0941,-7.095,-7.0959,0,0,0,0,0,0,-6.9587,-6.9628,-6.9964,-6.9809,-6.985,-6.9908,-7.0003,-7.0009,-7.0067,-7.0136,-7.0145,-7.0069,-7.021,-7.0241,-7.0431,-7.0541,-7.0341,-7.0355,-7.0932,-7.0944,-7.0954,-7.1082,0,0,0,0,0,0,-6.9574,-6.9625,-6.9712,-6.9811,-6.9859,-7.0131,-7.001,-7.0018,-7.0093,-7.0083,-7.0186,-7.0196,-7.0207,-7.041,-7.0446,-7.0558,-7.0366,-7.0923,-7.0937,-7.0951,-7.1068,-7.1096,-7.112,0,0,0,0,0,-6.9558,-6.9738,-6.9717,-6.9758,-6.9969,-7.0138,-7.0165,-7.0176,-7.0103,-7.019,-7.0235,-7.0193,-7.0523,-7.043,-7.0469,-7.0588,-7.0916,-7.0933,-7.095,-7.1057,-7.1091,-7.112,0,0,0,0,0,0,-6.9648,-6.9751,-6.9728,-6.9946,-7.0034,-7.0126,-7.0237,-7.0211,-7.0321,-7.0306,-7.0313,-7.0337,-7.0533,-7.0578,-7.0473,-7.0813,-7.0708,-7.0734,-7.0776,-7.0809,-7.0835,-7.082,-7.0378,0,0,0,0,0,-6.9693,-6.9823,-6.9905,-7.0089,-7.0135,-7.0179,-7.0252,-7.0254,-7.0344,-7.0381,-7.0439,-7.0527,-7.0651,-7.0732,-7.0849,-7.1074,-7.1096,-7.1175,-7.1201,-7.1222,-7.1245,-7.1369,-7.1406,-7.1015,-7.1014,-7.1014,0,0,-6.9787,-6.986,-6.9941,-7.0109,-7.0177,-7.0311,-7.021,-7.0355,-7.0454,-7.0402,-7.0586,-7.0632,-7.073,-7.094,-7.1034,-7.0984,-7.1358,-7.1244,-7.126,-7.1272,-7.139,-7.1427,-7.146,-7.1026,-7.1024,-7.1022,0,0,-7.0028,-7.0096,-7.0258,-7.0329,-7.0435,-7.0463,-7.0502,-7.0599,-7.0628,-7.0813,-7.0778,-7.0894,-7.1107,-7.118,-7.1245,-7.1515,-7.1481,-7.1553,-7.169,-7.1811,-7.1841,-7.1869,-7.1967,-7.2002,-7.1575,-7.1575,-7.1576,0,-7.0132,-7.0334,-7.0343,-7.0494,-7.0569,-7.053,-7.0693,-7.0761,-7.0899,-7.0952,-7.0893,-7.1162,-7.1225,-7.1451,-7.1518,-7.1571,-7.1616,-7.1542,-7.1836,-7.1864,-7.189,-7.1984,-7.202,-7.1584,-7.1583,-7.1582,-7.1581,0,-7.0457,-7.0598,-7.0715,-7.0853,-7.0941,-7.1097,-7.1129,-7.1217,-7.1211,-7.1245,-7.1435,-7.151,-7.1643,-7.1696,-7.169,-7.1923,-7.1889,-7.1834,-7.1729,-7.1935,-7.2024,-7.2059,-7.1595,-7.1592,-7.159,-7.1588,0,0,-7.076,-7.0903,-7.0946,-7.1009,-7.1123,-7.1231,-7.1385,-7.1518,-7.1594,-7.169,-7.182,-7.2002,-7.1953,-7.2026,-7.2028,-7.2134,-7.2346,-7.2066,-7.2068,-7.2117,-7.2609,-7.2651,-7.2693,-7.2324,-7.2331,-7.2336,-7.2601,0,-7.1012,-7.1286,-7.13,-7.1548,-7.1678,-7.1643,-7.1777,-7.1862,-7.1898,-7.2013,-7.2051,-7.2182,-7.2106,-7.215,-7.2254,-7.2299,-7.2445,-7.2279,-7.2445,-7.245,-7.2423,-7.2739,-7.2783,-7.303,-7.2636,-7.2642,-7.2646,0,-7.1343,-7.1453,-7.1715,-7.1813,-7.1868,-7.1989,-7.2113,-7.2223,-7.2318,-7.2337,-7.2421,-7.2408,-7.2565,-7.2454,-7.2671,-7.2558,-7.2626,-7.2659,-7.2669,-7.2686,-7.2562,-7.2766,-7.3109,-7.3147,-7.27,-7.2696,-7.2692,0,-7.1541,-7.1754,-7.1939,-7.1993,-7.2111,-7.2198,-7.225,-7.2339,-7.2418,-7.2526,-7.2577,-7.27,-7.2768,-7.2864,-7.2884,-7.2802,-7.3102,-7.2993,-7.3122,-7.3122,-7.3188,-7.3184,-7.3549,-7.3229,-7.3229,-7.3228,-7.3227,0,-7.1822,-7.1984,-7.203,-7.2144,-7.2324,-7.2338,-7.2516,-7.2562,-7.2642,-7.2764,-7.2739,-7.2854,-7.2873,-7.2992,-7.3009,-7.3187,-7.3217,-7.3237,-7.3239,-7.324,-7.3238,-7.3286,-7.327,-7.3238,-7.3236,-7.3234,-7.3232,0,-7.2074,-7.2111,-7.231,-7.2407,-7.2435,-7.2564,-7.2646,-7.2755,-7.2789,-7.2943,-7.298,-7.3033,-7.3172,-7.3202,-7.3365,-7.3376,-7.3589,-7.3574,-7.3558,-7.3557,-7.3686,-7.3675,-7.4096,-7.4153,-7.3794,-7.3798,-7.38,0,-7.2252,-7.2376,-7.2487,-7.2568,-7.2626,-7.2756,-7.2838,-7.2856,-7.2942,-7.3061,-7.3156,-7.3292,-7.3403,-7.3626,-7.3678,-7.3803,-7.3792,-7.3931,-7.3811,-7.3809,-7.3797,-7.379,-7.3804,-7.3955,-7.3959,-7.3962,-7.3964,0,-7.2564,-7.2577,-7.2697,-7.2825,-7.2924,-7.3024,-7.312,-7.3187,-7.3218,-7.3316,-7.3459,-7.3545,-7.3714,-7.385,-7.3976,-7.4029,-7.4003,-7.4002,-7.4039,-7.4042,-7.4029,-7.404,-7.3623,-7.3992,-7.3989,-7.3987,-7.3986,-7.3985,-7.2786,-7.2896,-7.2992,-7.3127,-7.3202,-7.3292,-7.34,-7.3449,-7.3569,-7.371,-7.3712,-7.3869,-7.3961,-7.4128,-7.4189,-7.4311,-7.4268,-7.4321,-7.4334,-7.4348,-7.4361,-7.4008,-7.4334,-7.4333,-7.4332,-7.4331,-7.4331,0,-7.3099,-7.316,-7.3284,-7.342,-7.3527,-7.3494,-7.3599,-7.369,-7.3829,-7.3918,-7.4028,-7.4193,-7.4326,-7.4389,-7.452,-7.4605,-7.4597,-7.4639,-7.4634,-7.4647,-7.4391,-7.4347,-7.4644,-7.4644,-7.4644,-7.4644,-7.4644,-7.4644,-7.3275,-7.346,-7.3485,-7.3706,-7.3765,-7.392,-7.3983,-7.4067,-7.4138,-7.4325,-7.4436,-7.4477,-7.4556,-7.4693,-7.4813,-7.4828,-7.4878,-7.4927,-7.4937,-7.4697,-7.4665,-7.4634,-7.4593,-7.4937,-7.4938,-7.5183,-7.5185,-7.5187]}]]